CW9723 Weather Reports


Display with metric or nautical units.
time (UTC)temp
F
wind
direction
speed
MPH
gust
MPH
rain 1hr
in
rain 24hr
in
rain mn
in
humidity
%
barometer
mb
20260505035230 65 171 4.0 8.0 0.00 0.00 0.00 49 1003.0
20260505034733 65 227 4.0 8.0 0.00 0.00 0.00 49 1002.9
20260505034007 65 193 3.0 6.0 0.00 0.00 0.00 50 1002.8
20260505033507 65 235 3.0 9.0 0.00 0.00 0.00 49 1002.9
20260505033228 66 160 3.0 9.0 0.00 0.00 0.00 47 1002.8
20260505032507 66 213 3.0 7.0 0.00 0.00 0.00 47 1002.9
20260505032006 66 168 3.0 8.0 0.00 0.00 0.00 46 1002.9
20260505031507 66 254 3.0 8.0 0.00 0.00 0.00 46 1002.9
20260505031005 66 211 3.0 7.0 0.00 0.00 0.00 46 1002.9
20260505030506 66 190 3.0 6.0 0.00 0.00 0.00 45 1002.8
20260505030002 66 192 3.0 7.0 0.00 0.00 0.00 45 1002.9
20260505025502 66 223 3.0 7.0 0.00 0.00 0.00 45 1002.8
20260505025001 66 191 3.0 7.0 0.00 0.00 0.00 45 1002.9
20260505024503 66 222 3.0 7.0 0.00 0.00 0.00 44 1002.9
20260505024001 66 229 3.0 6.0 0.00 0.00 0.00 44 1002.9
20260505023516 67 228 3.0 7.0 0.00 0.00 0.00 43 1002.9
20260505023001 67 222 3.0 7.0 0.00 0.00 0.00 42 1003.0
20260505022503 67 231 3.0 9.0 0.00 0.00 0.00 41 1003.0
20260505022001 67 201 3.0 9.0 0.00 0.00 0.00 42 1003.1
20260505021712 67 193 3.0 8.0 0.00 0.00 0.00 40 1003.1
20260505021605 67 261 3.0 8.0 0.00 0.00 0.00 41 1003.1
20260505020506 67 200 3.0 7.0 0.00 0.00 0.00 40 1002.9
20260505020001 68 190 3.0 7.0 0.00 0.00 0.00 40 1002.9
20260505015504 68 217 3.0 8.0 0.00 0.00 0.00 41 1002.9
20260505015000 68 216 3.0 8.0 0.00 0.00 0.00 40 1002.9
20260505014735 68 184 3.0 9.0 0.00 0.00 0.00 40 1002.8
20260505013959 68 222 3.0 9.0 0.00 0.00 0.00 39 1002.7
20260505013506 68 191 2.0 5.0 0.00 0.00 0.00 40 1002.6
20260505013002 68 225 2.0 5.0 0.00 0.00 0.00 41 1002.7
20260505012513 68 196 3.0 6.0 0.00 0.00 0.00 40 1002.6
20260505011959 68 227 3.0 6.0 0.00 0.00 0.00 42 1002.6
20260505011505 68 241 2.0 5.0 0.00 0.00 0.00 42 1002.6
20260505011001 68 204 2.0 4.0 0.00 0.00 0.00 41 1002.6
20260505010512 68 184 2.0 4.0 0.00 0.00 0.00 42 1002.5
20260505005959 68 200 2.0 4.0 0.00 0.00 0.00 43 1002.5
20260505005501 68 200 2.0 4.0 0.00 0.00 0.00 41 1002.5
20260505004958 68 216 2.0 4.0 0.00 0.00 0.00 41 1002.5
20260505004505 68 291 2.0 4.0 0.00 0.00 0.00 42 1002.5
20260505003958 68 221 2.0 4.0 0.00 0.00 0.00 43 1002.5
20260505003501 68 180 1.0 2.0 0.00 0.00 0.00 43 1002.4
20260505002957 68 197 1.0 2.0 0.00 0.00 0.00 43 1002.5
20260505002501 69 177 1.0 3.0 0.00 0.00 0.00 43 1002.4
20260505002217 69 174 1.0 3.0 0.00 0.00 0.00 43 1002.4
20260505001505 69 0 1.0 2.0 0.00 0.00 0.00 42 1002.4
20260505000958 69 199 1.0 2.0 0.00 0.01 0.00 42 1002.4
20260505000505 69 190 0.0 2.0 0.00 0.01 0.00 42 1002.3
20260504235958 70 0 0.0 1.0 0.00 0.01 0.00 42 1002.3
20260504235503 70 0 0.0 2.0 0.00 0.02 0.00 40 1002.2
20260504234958 71 0 1.0 2.0 0.00 0.02 0.00 41 1002.3
20260504234458 72 157 1.0 4.0 0.00 0.02 0.00 38 1002.3
20260504233955 72 164 1.0 4.0 0.00 0.02 0.00 38 1002.3
20260504233453 73 148 1.0 2.0 0.00 0.02 0.00 36 1002.3
20260504232951 73 223 1.0 3.0 0.00 0.02 0.00 34 1002.2
20260504232710 74 0 2.0 4.0 0.00 0.02 0.00 34 1002.1
20260504232207 75 104 2.0 6.0 0.00 0.02 0.00 33 1002.1
20260504232048 74 202 2.0 4.0 0.00 0.02 0.00 33 1002.1
20260504230950 75 196 2.0 6.0 0.00 0.02 0.00 31 1002.1
20260504230454 75 172 2.0 6.0 0.00 0.02 0.00 32 1002.1
20260504225951 75 215 3.0 6.0 0.00 0.02 0.00 32 1002.1
20260504225714 75 150 3.0 8.0 0.00 0.02 0.00 31 1002.0
20260504225442 75 228 3.0 8.0 0.00 0.02 0.00 31 1002.1
20260504224448 75 160 2.0 5.0 0.00 0.02 0.00 31 1002.1
20260504223942 75 352 3.0 6.0 0.00 0.02 0.00 31 1002.1
20260504223704 75 210 3.0 6.0 0.00 0.02 0.00 30 1002.2
20260504222942 75 60 4.0 8.0 0.00 0.02 0.00 30 1002.3
20260504222443 75 146 4.0 10.0 0.00 0.02 0.00 29 1002.2
20260504222215 76 196 3.0 10.0 0.00 0.02 0.00 30 1002.2
20260504221704 76 237 2.0 9.0 0.00 0.02 0.00 30 1002.3
20260504220940 75 147 4.0 9.0 0.00 0.02 0.00 30 1002.4
20260504220702 75 250 4.0 9.0 0.00 0.02 0.00 30 1002.4
20260504220203 76 144 4.0 11.0 0.00 0.02 0.00 30 1002.4
20260504215434 76 299 3.0 11.0 0.00 0.02 0.00 30 1002.4
20260504214934 76 173 4.0 10.0 0.00 0.02 0.00 30 1002.4
20260504214434 75 344 5.0 16.0 0.00 0.02 0.00 30 1002.5
20260504213933 75 253 5.0 16.0 0.00 0.02 0.00 30 1002.5
20260504213437 75 251 4.0 9.0 0.00 0.02 0.00 30 1002.5
20260504212934 75 304 5.0 12.0 0.00 0.02 0.00 31 1002.5
20260504212441 75 303 4.0 12.0 0.00 0.02 0.00 30 1002.5
20260504211948 75 281 4.0 12.0 0.00 0.02 0.00 33 1002.5
20260504211924 75 239 4.0 12.0 0.00 0.02 0.00 32 1002.5
20260504210934 75 236 5.0 13.0 0.00 0.02 0.00 32 1002.6
20260504210436 75 274 5.0 13.0 0.00 0.02 0.00 32 1002.7
20260504210424 75 200 5.0 11.0 0.00 0.02 0.00 33 1002.7
20260504205436 75 279 5.0 11.0 0.00 0.02 0.00 34 1002.7
20260504204932 75 274 5.0 13.0 0.00 0.02 0.00 34 1002.8
20260504204654 76 278 4.0 13.0 0.00 0.02 0.00 33 1002.8
20260504203931 76 238 4.0 8.0 0.00 0.02 0.00 34 1002.9
20260504203432 75 192 5.0 10.0 0.00 0.02 0.00 34 1002.9
20260504203158 75 275 5.0 10.0 0.00 0.02 0.00 35 1003.0
20260504202433 75 235 4.0 9.0 0.00 0.02 0.00 34 1003.0
20260504202153 75 277 4.0 12.0 0.00 0.02 0.00 34 1003.0
20260504201700 74 328 5.0 12.0 0.00 0.02 0.00 35 1003.1
20260504200931 74 284 6.0 13.0 0.00 0.02 0.00 35 1003.1
20260504200433 74 272 4.0 13.0 0.00 0.02 0.00 36 1003.2
20260504195931 74 276 4.0 9.0 0.00 0.02 0.00 35 1003.3
20260504195434 74 250 4.0 10.0 0.00 0.02 0.00 37 1003.4
20260504194931 74 286 6.0 11.0 0.00 0.02 0.00 37 1003.4
20260504194656 74 286 5.0 11.0 0.00 0.02 0.00 36 1003.5
20260504193930 74 253 5.0 12.0 0.00 0.02 0.00 37 1003.7
20260504193431 74 220 4.0 12.0 0.00 0.02 0.00 38 1003.7
20260504192930 74 291 6.0 14.0 0.00 0.02 0.00 36 1003.7
20260504192440 73 352 7.0 14.0 0.00 0.02 0.00 38 1003.8
20260504191931 73 299 7.0 12.0 0.00 0.02 0.00 37 1003.7
20260504191432 73 41 6.0 12.0 0.00 0.02 0.00 38 1003.7
20260504190932 73 251 5.0 12.0 0.00 0.02 0.00 39 1004.0
20260504190433 73 179 6.0 14.0 0.00 0.02 0.00 39 1004.1
20260504185931 73 294 7.0 14.0 0.00 0.02 0.00 38 1004.1
20260504185700 73 192 6.0 13.0 0.00 0.02 0.00 40 1004.3
20260504184931 73 260 5.0 13.0 0.00 0.02 0.00 40 1004.3
20260504184430 72 260 6.0 13.0 0.00 0.02 0.00 40 1004.4
20260504183927 72 277 7.0 14.0 0.00 0.02 0.00 40 1004.3
20260504183428 72 249 6.0 14.0 0.00 0.02 0.00 40 1004.4
20260504182927 73 267 5.0 14.0 0.00 0.02 0.00 41 1004.5
20260504182428 72 244 5.0 14.0 0.00 0.02 0.00 42 1004.5
20260504181925 71 235 6.0 15.0 0.00 0.02 0.00 42 1004.6
20260504181428 71 214 6.0 15.0 0.00 0.02 0.00 42 1004.6
20260504180925 71 224 5.0 11.0 0.00 0.02 0.00 43 1004.6
20260504180427 71 305 6.0 15.0 0.00 0.02 0.00 43 1004.6
20260504175926 70 175 7.0 15.0 0.00 0.02 0.00 44 1004.7
20260504175427 71 230 7.0 14.0 0.00 0.02 0.00 43 1004.7
20260504174929 70 249 6.0 14.0 0.00 0.02 0.00 44 1004.8
20260504174921 70 277 6.0 13.0 0.00 0.02 0.00 44 1004.9
20260504173922 69 221 7.0 13.0 0.00 0.02 0.00 46 1004.8
20260504173702 69 251 7.0 14.0 0.00 0.02 0.00 45 1004.8
20260504172922 70 204 7.0 14.0 0.00 0.02 0.00 45 1004.9
20260504172423 70 244 6.0 13.0 0.00 0.02 0.00 45 1004.8
20260504171922 70 267 5.0 12.0 0.00 0.02 0.00 46 1004.8
20260504171425 69 206 6.0 13.0 0.00 0.02 0.00 46 1005.0
20260504170923 69 202 6.0 13.0 0.00 0.02 0.00 48 1005.0
20260504170423 68 255 6.0 14.0 0.00 0.02 0.00 48 1005.1
20260504160420 66 231 5.0 12.0 0.00 0.02 0.00 48 1005.5
20260504150912 64 192 4.0 10.0 0.00 0.02 0.00 51 1006.1
20260504150412 63 210 5.0 12.0 0.00 0.02 0.00 50 1006.2
20260504150145 63 204 5.0 12.0 0.00 0.02 0.00 50 1006.1
20260504141110 60 289 5.0 12.0 0.00 0.02 0.00 53 1006.5
20260504140349 58 209 6.0 12.0 0.00 0.02 0.00 55 1006.5
20260504130345 56 73 4.0 11.0 0.00 0.02 0.00 57 1007.0
20260504110337 50 210 3.0 7.0 0.00 0.02 0.00 66 1007.3
20260504100333 51 186 4.0 7.0 0.00 0.02 0.00 64 1007.0
20260504081829 50 184 2.0 6.0 0.00 0.02 0.00 66 1007.6
20260504081330 50 200 2.0 5.0 0.00 0.02 0.00 66 1007.6
20260504080830 50 202 2.0 5.0 0.00 0.02 0.00 65 1007.7
20260504080330 49 177 2.0 5.0 0.00 0.02 0.00 66 1007.7
20260504050328 53 209 2.0 6.0 0.00 0.02 0.00 57 1008.4
20260504050317 53 237 3.0 7.0 0.00 0.02 0.00 56 1008.4
20260504045317 53 243 1.0 3.0 0.00 0.02 0.00 58 1008.4
20260504044815 53 255 2.0 3.0 0.00 0.02 0.00 58 1008.4
20260504044314 53 208 2.0 3.0 0.00 0.02 0.00 58 1008.4
20260504043814 53 200 2.0 5.0 0.00 0.02 0.00 58 1008.4
20260504043538 53 196 2.0 5.0 0.00 0.02 0.00 59 1008.4
20260504042814 53 0 1.0 3.0 0.00 0.02 0.00 60 1008.5
20260504042534 53 216 1.0 3.0 0.00 0.02 0.00 60 1008.5
20260504041815 53 199 2.0 4.0 0.00 0.02 0.00 59 1008.5
20260504041315 53 188 2.0 4.0 0.00 0.02 0.00 57 1008.5
20260504041247 54 173 2.0 4.0 0.00 0.02 0.00 58 1008.5
20260504040528 54 195 2.0 4.0 0.00 0.02 0.00 58 1008.4
20260504040024 54 211 2.0 5.0 0.00 0.02 0.02 58 1008.5
20260504035909 54 231 2.0 4.0 0.00 0.02 0.02 58 1008.4